Vorticity
nan nan nan nan nan nan nan nan nan nan nan nan nan nan nan nan nan nan nan nan nan nan nan nan nan nan nan nan nan nan nan nan nan nan nan nan nan nan nan nan nan nan nan nan nan nan nan nan nan nan nan nan nan nan
nan 8 7 7 8 8 8 8 9 8 8 7 8 11 9 9 9 7 10 11 10 8 4 11 15 10 7 2 8 13 11 8 10 10 9 12 12 13 11 9 10 11 13 11 11 6 11 9 10 9 13 11 12 nan
nan 8 7 7 8 8 8 8 8 8 8 6 8 11 9 9 10 8 9 8 11 12 13 14 12 15 19 12 6 5 12 11 10 9 7 10 9 13 11 10 9 9 13 8 7 15 17 8 7 8 8 9 13 nan
nan 8 7 8 9 8 7 7 9 9 7 6 10 10 9 8 10 12 12 11 7 9 13 17 16 10 12 17 14 9 6 11 10 9 9 9 10 9 10 15 13 10 8 10 3 12 15 11 9 8 5 6 13 nan
nan 9 8 8 7 8 8 9 8 7 7 8 10 9 8 9 12 18 15 13 10 6 7 6 10 22 18 15 16 12 6 7 7 9 11 10 9 9 8 13 13 15 10 11 11 13 10 16 13 10 10 7 10 nan
nan 9 10 9 8 7 8 8 8 7 8 10 9 8 9 13 17 14 16 19 14 7 6 9 11 15 11 26 27 9 5 7 9 9 11 12 9 11 11 12 14 12 11 7 13 18 11 15 15 11 11 9 11 nan
nan 10 9 8 8 8 8 8 8 7 8 9 9 9 13 14 12 8 6 18 23 4 6 10 12 18 20 9 8 12 12 10 8 11 11 8 12 13 10 7 6 15 11 8 12 7 10 12 15 12 11 13 10 nan
nan 11 10 9 9 7 7 8 7 7 8 8 9 12 17 19 19 18 14 17 9 4 11 10 11 14 18 10 11 10 11 10 9 9 11 11 13 11 10 7 5 7 13 16 7 5 9 12 13 10 10 14 11 nan
nan 11 14 12 8 7 8 8 7 8 7 9 14 20 26 22 18 23 22 16 2 7 10 10 12 11 13 9 10 11 10 9 11 11 9 12 13 10 11 7 10 13 12 10 11 8 7 8 9 10 11 10 9 nan
nan 17 13 8 8 9 7 7 8 8 9 18 24 22 16 17 10 7 13 12 9 7 10 13 10 8 8 15 12 10 10 10 12 12 12 10 8 13 10 8 9 10 10 11 11 9 10 12 12 10 10 10 10 nan
nan 12 9 8 8 7 7 8 8 10 17 18 12 11 17 12 6 10 12 11 11 11 12 14 8 9 13 13 10 11 8 11 11 18 10 6 17 20 9 5 5 7 11 12 12 12 10 9 11 12 11 11 12 nan
nan 8 8 8 8 7 8 9 7 9 9 8 12 14 12 9 11 13 10 10 12 11 14 16 14 8 8 11 12 12 11 11 15 13 6 10 17 19 19 14 8 5 5 12 9 11 11 11 11 11 11 12 13 nan
nan 8 8 8 8 9 9 10 11 6 5 11 14 12 10 13 11 12 9 10 10 12 14 13 13 10 9 11 12 11 13 9 12 12 11 9 9 15 18 15 15 17 11 7 10 11 9 9 13 12 11 14 14 nan
nan 8 7 7 9 10 11 11 9 10 12 12 15 10 10 10 11 11 12 11 8 12 14 11 10 9 10 11 10 10 11 10 14 13 10 11 10 10 15 17 15 17 18 10 7 9 11 10 10 11 13 13 12 nan
nan 9 9 9 10 10 11 11 10 8 10 13 13 14 10 9 13 12 11 11 13 8 8 11 11 10 10 12 11 10 12 14 12 10 12 11 15 14 12 16 17 16 15 16 15 12 12 12 11 12 13 11 10 nan
nan 9 14 14 12 11 8 10 11 9 11 13 11 11 12 11 10 14 14 13 14 10 6 10 9 11 14 11 13 10 9 12 10 9 11 10 12 13 13 11 14 18 18 15 14 14 13 13 12 12 12 12 13 nan
nan 11 21 16 13 14 10 8 14 10 10 12 12 9 11 14 14 11 12 18 15 8 8 10 12 9 9 12 13 11 9 8 8 10 11 10 7 7 8 10 11 13 14 15 15 15 14 14 13 13 10 12 14 nan
nan 15 17 14 11 7 13 12 10 15 11 10 12 14 12 10 12 11 11 15 16 11 9 8 8 13 11 10 11 12 9 11 12 12 10 12 10 8 8 9 10 10 11 13 13 13 18 18 14 13 13 12 11 nan
nan 11 18 11 1 8 13 10 10 14 12 11 13 11 11 11 11 11 12 16 13 8 10 10 10 12 10 9 10 14 17 13 8 10 12 16 15 12 12 11 10 10 12 14 15 14 15 16 13 14 17 15 11 nan
nan 10 11 12 -0 0 11 12 11 13 15 13 15 12 9 9 10 12 13 15 13 9 11 11 13 10 9 10 8 8 11 12 9 11 11 11 9 10 14 17 16 12 11 13 13 14 15 14 14 13 14 14 15 nan
nan 19 18 8 4 5 11 15 12 12 13 16 16 13 11 13 9 9 12 11 13 12 9 11 11 13 12 8 8 9 9 10 12 12 8 7 9 11 12 12 13 14 13 12 12 12 15 14 12 14 14 12 13 nan
nan 16 5 15 12 12 8 13 13 13 12 14 14 10 13 14 12 13 13 13 10 14 12 8 9 9 8 11 14 10 10 11 15 15 13 9 7 9 13 12 13 14 13 13 13 13 12 14 16 16 13 14 14 nan
nan 4 11 14 15 11 13 14 15 12 10 11 11 9 11 15 16 12 10 11 12 14 11 11 13 9 7 6 9 14 17 15 12 11 11 12 11 10 11 13 14 13 12 13 15 15 14 12 13 14 12 14 12 nan
nan 12 15 12 11 12 13 12 13 11 11 17 20 10 7 12 11 11 15 14 11 12 15 10 7 9 14 16 12 10 10 12 10 11 12 11 9 13 13 13 14 14 14 15 15 13 12 12 12 12 13 13 14 nan
nan 13 12 12 13 15 12 13 10 11 15 14 11 14 13 15 14 11 13 14 17 16 13 13 11 12 11 10 9 13 12 11 13 11 12 12 8 10 13 15 15 13 13 13 14 13 12 12 14 14 14 14 14 nan
nan 17 12 7 12 14 13 15 13 7 11 15 11 9 12 12 13 14 15 16 15 17 16 16 13 11 13 13 12 14 15 12 13 12 14 14 13 13 13 13 10 12 16 14 14 13 11 12 14 12 11 13 12 nan
nan 12 11 12 13 8 12 16 21 13 8 11 13 12 13 11 10 10 9 11 11 11 12 14 19 20 15 12 14 15 18 18 14 12 14 13 12 15 18 16 13 15 16 15 14 16 12 10 10 11 11 11 13 nan
nan 16 13 10 11 15 13 12 14 15 11 13 16 15 12 10 6 7 9 8 10 10 12 14 13 13 16 20 18 12 11 12 13 13 11 10 10 9 13 14 18 20 16 16 15 14 15 15 13 12 12 12 10 nan
nan 13 13 12 11 13 15 13 9 10 17 20 13 11 10 11 12 11 10 11 14 15 14 14 17 14 12 12 13 16 18 16 11 11 9 3 6 12 12 13 13 15 15 14 16 19 19 18 17 13 13 11 11 nan
nan 12 12 13 13 11 10 13 15 11 12 15 15 14 12 12 10 10 11 14 15 16 19 18 18 16 15 11 7 8 11 13 16 20 18 14 9 13 15 13 12 13 14 16 14 12 15 15 13 16 16 13 13 nan
nan 14 11 13 13 13 13 12 12 11 11 12 14 16 15 13 9 6 9 12 15 18 16 15 14 17 19 17 15 12 9 11 17 17 17 16 17 15 13 13 14 15 16 17 16 13 12 11 12 14 12 11 12 nan
nan 15 14 13 15 16 9 7 12 12 11 11 14 14 11 11 11 8 8 11 13 14 14 17 15 13 15 15 14 14 17 17 16 17 20 19 15 14 14 13 16 18 18 16 14 15 15 14 13 13 13 12 12 nan
nan nan nan nan nan nan nan nan nan nan nan nan nan nan nan nan nan nan nan nan nan nan nan nan nan nan nan nan nan nan nan nan nan nan nan nan nan nan nan nan nan nan nan nan nan nan nan nan nan nan nan nan nan nan
CAPE
19 15 10 8 8 8 11 13 16 20 24 28 10 15 18 21 31 22 0 4 22 35 12 2 0 9 4 26 7 0 0 3 2 5 3 3 3 0 0 0 0 0 0 0 0 0 0 0 0 0 0 0 0 0
3 0 0 0 5 6 6 10 15 24 26 24 7 10 15 27 37 34 5 0 23 31 5 0 0 1 0 0 21 0 5 5 4 3 2 8 12 0 0 0 0 0 0 0 0 0 0 0 0 0 0 0 0 0
0 0 0 0 1 1 0 4 9 17 21 14 6 6 14 30 38 34 17 1 20 31 1 0 0 0 0 0 0 36 2 1 6 5 10 10 4 0 0 0 0 0 0 0 0 0 0 0 0 0 0 0 0 0
0 0 0 0 0 2 0 0 2 13 21 9 4 5 20 37 45 46 37 9 25 44 48 0 0 0 2 0 0 0 1 0 1 8 14 16 21 0 0 0 0 0 0 0 0 0 0 0 0 0 0 0 0 0
0 0 0 0 0 0 0 0 0 11 15 3 2 12 26 37 50 48 40 25 28 33 10 0 0 0 0 2 0 0 0 0 0 22 18 25 27 6 0 0 0 0 0 0 0 0 0 0 0 0 0 0 0 0
1 0 0 0 3 1 0 0 0 7 16 2 9 19 32 75 63 41 2 4 2 22 69 19 0 0 0 10 0 0 0 4 3 22 24 22 0 3 2 0 0 0 0 0 0 0 0 0 0 0 0 0 0 0
3 2 2 3 3 0 0 0 0 6 12 4 20 38 65 69 34 4 1 1 1 14 34 50 0 0 0 21 7 3 1 9 14 26 27 17 0 11 1 0 0 0 0 0 0 0 0 0 0 0 0 0 0 0
7 5 1 2 1 0 0 0 1 0 1 18 34 54 49 37 31 27 15 0 6 18 16 27 0 0 14 18 22 19 14 12 14 5 14 28 0 34 14 0 0 0 0 0 0 0 0 0 0 0 0 0 0 0
5 13 4 4 2 0 0 0 0 0 1 10 33 32 19 8 0 2 35 9 5 2 28 23 1 0 33 3 19 5 8 8 0 14 10 6 3 20 0 0 0 0 0 0 0 0 0 0 0 0 0 0 0 0
13 21 0 3 0 3 0 0 0 0 6 29 19 14 0 1 0 9 16 9 12 22 20 15 0 0 30 14 9 21 12 12 11 0 2 6 0 0 0 0 0 0 0 0 0 0 0 0 0 0 0 0 0 0
4 3 4 8 7 0 0 0 0 8 24 20 2 0 0 2 6 2 0 0 0 5 1 0 0 0 28 0 1 7 2 3 1 0 0 0 0 0 0 0 0 0 0 0 0 0 0 0 0 0 0 0 0 0
11 2 11 9 1 1 0 2 4 31 17 10 5 9 7 9 0 1 1 2 13 0 0 0 0 0 25 35 29 5 3 9 5 0 1 1 0 0 0 0 0 0 0 0 0 0 0 0 0 0 0 0 0 0
13 15 10 7 8 0 0 13 37 36 13 24 20 2 0 0 1 1 3 0 9 12 1 0 0 0 27 4 0 0 0 0 10 23 16 0 0 0 0 0 0 0 0 0 0 0 0 0 0 0 0 0 0 0
12 4 6 6 5 9 32 49 49 31 22 1 1 0 1 0 0 0 0 0 0 0 1 0 0 5 3 2 0 5 0 3 16 26 17 0 0 0 0 0 0 0 0 0 0 0 0 0 0 0 0 0 0 0
2 4 1 1 16 42 54 51 51 26 25 1 2 0 1 0 0 0 0 0 0 0 0 1 2 13 11 7 0 0 5 29 10 11 0 0 0 0 0 0 0 0 0 0 0 0 0 0 0 0 0 0 0 0
4 10 7 14 39 39 50 50 32 32 9 7 8 7 9 0 8 32 0 0 0 0 5 35 12 2 32 14 1 0 14 18 22 48 23 4 0 0 0 0 0 0 0 0 0 0 0 0 0 0 0 0 0 0
12 20 5 29 39 42 45 32 46 1 0 11 1 0 0 4 25 66 74 103 0 0 0 9 5 1 12 35 17 1 0 6 1 23 31 0 0 0 0 0 0 0 0 0 0 0 0 0 0 0 0 0 0 0
25 25 32 26 32 26 30 30 3 0 2 4 18 6 20 71 34 66 131 63 4 0 1 25 16 7 22 15 7 2 0 0 0 0 0 1 0 0 0 0 0 0 0 0 0 0 0 0 0 0 0 0 0 0
19 19 35 27 44 35 0 6 9 2 0 12 9 14 3 27 16 66 38 51 1 0 7 27 27 1 0 27 26 18 13 28 54 31 81 43 0 0 0 0 0 0 0 0 0 0 0 0 0 0 0 0 0 0
37 39 40 44 33 0 2 2 5 30 15 4 19 4 5 1 56 38 76 43 14 0 2 6 5 1 47 45 27 18 106 31 3 10 0 0 0 0 0 0 0 0 0 0 0 0 0 0 0 0 0 0 0 0
35 16 34 33 23 4 9 10 6 0 12 27 29 26 0 0 0 15 47 47 59 1 0 0 0 0 3 5 0 1 1 0 9 0 0 0 0 0 0 0 0 0 0 0 0 0 0 0 0 0 0 0 0 0
15 32 21 19 0 1 2 1 26 11 0 7 11 15 9 0 0 0 16 65 9 0 0 0 0 2 3 33 41 13 0 0 0 0 0 0 0 0 0 0 0 0 0 0 0 0 0 0 0 0 0 0 0 0
9 1 1 0 0 0 0 1 29 12 0 0 2 17 16 1 0 3 0 0 0 0 0 1 0 0 0 0 0 0 13 8 1 0 0 0 0 0 0 0 0 0 0 0 0 0 0 0 0 0 0 0 0 0
0 0 0 0 0 0 1 13 28 27 31 16 0 0 0 3 14 13 0 0 0 0 0 0 0 0 0 0 0 0 0 7 0 0 0 0 0 0 0 0 0 0 0 0 0 0 0 0 0 1 1 1 1 0
0 0 0 1 0 0 0 4 27 30 0 0 6 0 6 20 4 10 0 0 0 0 0 0 0 0 0 0 0 0 0 0 0 0 0 0 0 0 0 0 0 0 0 0 0 1 1 1 1 1 1 0 0 0
0 1 0 0 3 6 4 3 0 0 8 10 8 4 0 0 2 10 0 0 0 0 0 0 0 0 0 0 0 0 0 0 0 0 0 0 0 0 0 0 0 0 0 0 1 1 1 1 1 0 0 1 0 0
1 2 1 0 0 0 0 1 2 0 0 2 12 2 2 1 1 0 0 0 0 0 0 1 0 0 0 0 0 0 0 0 0 0 0 0 0 0 0 0 0 0 0 0 0 0 0 0 0 0 0 0 0 0
0 1 0 0 0 0 0 0 0 1 0 6 0 0 0 0 0 0 0 0 0 0 0 0 0 0 0 0 0 0 0 0 0 0 0 0 0 0 0 0 1 0 0 0 0 0 0 0 0 0 0 0 0 0
2 0 0 0 0 0 0 0 0 0 0 0 0 0 0 0 1 2 0 0 0 2 1 0 0 0 0 0 0 0 0 0 0 0 0 0 0 0 0 0 0 0 0 0 1 0 0 0 0 0 0 0 0 0
0 0 0 0 0 0 2 1 2 2 0 0 0 0 0 1 3 3 0 1 0 1 1 0 0 0 0 0 1 0 0 1 0 0 0 0 0 0 1 0 0 0 0 0 0 0 1 0 0 0 0 0 0 0
0 0 0 0 1 3 1 1 0 0 0 0 0 0 0 1 1 0 0 0 1 0 0 0 0 0 0 0 0 0 0 0 0 1 0 0 0 0 0 0 0 0 0 0 0 0 0 0 0 0 0 0 0 0
0 1 0 0 3 1 1 4 2 1 3 1 3 6 1 0 0 0 0 0 0 0 0 0 0 0 0 0 0 0 0 0 0 0 0 0 0 0 0 0 0 0 0 0 0 0 0 0 0 0 0 0 0 0
5 1 0 2 2 3 4 3 1 2 2 1 1 2 1 1 0 0 0 0 0 0 0 0 1 0 0 0 0 0 0 0 0 0 0 0 0 0 0 0 0 0 0 0 0 0 0 0 0 0 0 0 0 0